Vertical_Velocity
-5 0 2 1 3 1 -0 -6 1 -3 -0 3 -1 -4 2 -1 -1 -1 -2 -3 -0 -1 -0 -0 -2 -2 0 0 0 1 1 2 0 -1 0 -1 -1 -1 0 -1 -2 -5 -2 -3 1 -2 0 -0 0
-6 -1 -3 4 2 1 -3 -4 3 2 -4 6 0 -2 -2 -3 -1 -0 -3 -4 -0 -2 1 1 -2 -1 1 0 0 -1 -0 0 -0 1 0 2 1 0 0 1 -1 -2 -1 -2 -0 -1 -1 0 1
-3 2 1 3 2 -5 -8 -5 4 -4 -3 1 2 1 3 -5 4 -1 -4 -3 -0 -2 -1 0 -2 1 -1 -0 1 -0 -0 -0 -1 -0 -0 -0 -0 1 -1 1 -1 -1 -1 -2 1 0 -0 1 1
-7 -0 3 -2 -1 0 2 -2 1 0 1 4 6 9 1 -1 0 -0 -1 -0 -3 -2 -3 -2 -0 -0 0 -1 0 0 -0 -0 0 1 0 -1 -0 0 1 1 1 0 -0 -3 -1 1 0 1 -1
-1 -1 3 -7 -3 -4 4 1 1 -5 6 4 3 0 0 2 -0 -0 0 0 -1 -0 -2 -2 -2 -1 -0 0 1 -1 -0 -0 0 1 2 1 1 -1 0 1 1 -1 -0 1 -1 0 0 0 1
6 -3 2 -8 -1 -1 0 8 4 0 -1 5 5 2 1 -0 1 -0 -1 -2 0 0 -1 -1 -0 -2 -2 -2 -2 0 -1 -1 -1 0 -0 1 2 1 1 1 -0 -0 1 1 -0 -3 1 1 1
6 -0 -8 -9 -9 -15 -3 8 -0 4 1 -3 -8 -1 3 0 1 2 1 -1 0 -1 -0 -1 0 1 0 -1 -3 -0 1 2 0 0 1 -1 -0 0 0 1 -1 -0 0 0 -1 -1 -1 2 0
8 9 -3 -13 -1 -15 1 4 7 3 6 -0 -5 -2 -5 1 0 -1 -1 -1 -2 -5 -2 1 0 1 0 2 1 0 -2 0 1 1 1 1 -1 1 1 -1 1 -0 3 2 1 -1 -0 -0 -0
4 5 -6 -24 3 5 2 2 -3 5 1 0 4 1 5 4 3 0 -0 1 0 1 -2 -3 1 2 2 0 1 2 4 0 1 0 -1 1 1 1 2 2 2 1 -0 2 -2 2 1 0 -1
3 1 -10 -9 17 -1 4 5 0 6 -2 -0 1 -2 1 4 6 12 6 2 3 3 1 -3 -1 0 1 -1 -0 -1 -2 0 1 0 0 2 1 0 -0 1 1 1 1 3 3 1 -0 3 0
-3 -15 -16 9 5 5 -6 3 6 1 0 2 9 -0 16 4 -5 -2 -2 8 9 -1 7 3 -4 1 3 5 2 3 2 -1 -0 0 -2 -0 2 3 3 1 3 2 1 -1 3 1 1 1 1
2 -10 18 18 -12 -19 5 0 -4 7 -0 3 5 5 -3 3 5 8 3 1 1 3 2 3 4 -2 3 3 5 2 3 3 0 1 2 1 -1 0 1 4 1 3 -1 1 2 1 -1 3 1
-2 -1 10 6 -12 2 7 3 -1 5 0 1 6 -5 -2 -12 -28 -11 10 1 1 1 -2 3 4 -0 1 2 4 2 0 1 3 3 2 -0 0 -0 1 -0 -0 3 1 0 1 2 1 -0 1
-5 2 5 -0 -3 7 6 -5 9 2 -1 -2 -0 6 -1 -43 -13 -1 3 -1 -5 2 1 1 3 -7 -2 -3 1 -0 1 0 2 0 2 1 3 2 2 1 4 2 1 -0 2 0 -1 -0 0
-0 3 2 3 4 2 10 -5 -12 3 -1 3 4 1 -6 2 -25 -10 23 8 13 1 3 5 3 -3 -3 1 -0 -1 2 2 2 1 -6 0 2 2 1 2 -1 2 1 0 3 1 -0 0 1
-5 6 3 6 7 5 7 -10 -8 -3 -7 -1 5 5 -1 6 4 -6 7 12 17 -2 3 2 -4 -0 3 -1 2 1 2 2 1 1 -1 -2 1 -0 2 0 1 -0 2 5 -2 3 -3 -1 0
2 -6 -5 7 4 9 6 -4 -4 -2 -4 3 2 7 -7 7 -3 3 13 8 4 6 2 2 -2 -3 -0 -1 1 3 -0 2 2 3 2 2 1 -0 2 3 2 -1 -0 2 3 0 1 -0 -1
2 -3 0 4 -5 -2 9 -7 2 -2 -2 2 1 -2 -0 7 1 1 -3 10 7 3 2 -2 -3 4 0 1 -2 1 -2 1 3 2 2 -0 2 -1 2 2 2 2 3 -3 6 0 2 2 -4
4 2 -1 3 -0 2 -1 -9 -6 -7 3 -3 -2 -6 0 3 3 -1 1 -2 -2 -3 -2 2 -2 -1 -0 -1 2 -1 1 2 1 -2 -3 1 2 -4 -4 2 5 1 4 -2 0 6 0 1 -4
3 4 2 6 3 11 5 -3 -8 -3 -9 -12 -6 -7 -3 -3 0 -0 -2 0 0 8 3 0 -2 -3 -1 0 -4 1 2 -1 0 -1 1 3 5 2 2 0 1 2 3 3 0 1 -4 -3 0
-2 1 2 6 2 7 10 13 3 -3 8 1 1 1 3 6 4 0 -3 -2 -4 2 8 -1 -0 -3 1 -2 -1 2 3 -0 2 -1 -3 3 -0 3 1 1 -1 -0 -10 -1 -16 0 2 5 2
1 10 3 8 13 -8 9 -3 -2 -2 -1 -3 -1 -6 3 -1 1 -1 -9 -6 -5 3 1 -0 -2 0 -2 -4 1 1 -2 0 2 -0 -1 4 -0 -2 -5 -9 -3 -3 0 2 3 3 5 -0 2
-10 2 -0 4 2 5 8 2 -19 -4 -3 -8 -2 -4 -5 3 6 -3 0 8 12 2 2 -1 -2 0 -2 -4 2 0 2 -1 1 1 -1 -1 -2 -1 -2 -4 3 1 1 -1 1 0 2 2 -2
-2 2 6 7 6 3 1 -1 -7 -20 -29 -8 -5 2 -3 -3 -2 2 -0 -3 6 4 -0 2 1 -2 -3 3 -1 1 0 -4 1 -4 -4 4 -7 -2 -0 2 -0 -0 -1 1 2 2 3 1 -0
0 21 4 6 3 -9 2 11 -8 -11 -13 -15 -20 -8 -2 3 -5 -2 -1 2 -5 -0 1 -1 -1 0 2 -0 1 -0 2 -1 2 -0 -4 9 -10 -2 -0 1 1 1 -1 1 0 0 1 -0 -0
7 -9 -9 -5 -4 -4 8 -2 -25 -9 -5 -15 6 8 16 4 0 -4 1 5 -2 -0 -2 -2 0 3 2 -1 1 1 3 -3 -1 3 -0 9 -7 -3 -2 2 1 -1 -1 -2 -0 1 0 -0 -1
-15 1 -19 5 5 -0 -7 1 5 1 -9 5 -3 6 -4 4 -5 -3 1 1 1 -3 -1 5 4 5 1 -1 -0 2 2 -1 2 2 -0 8 -4 -1 -1 -1 1 2 0 -1 -2 0 -1 -0 -2
-3 4 5 6 -2 1 1 1 -8 -5 -8 -5 1 -10 -4 8 10 0 -3 -2 5 1 2 1 4 8 8 2 4 3 -0 -2 1 1 0 6 -4 -1 -1 -1 -2 -0 2 1 -1 -1 -0 -1 -0
4 6 -1 4 2 -5 -2 -8 -10 -4 -5 -13 -7 -6 -1 -3 0 4 -0 5 6 5 2 1 1 5 1 -2 1 3 1 1 1 -0 1 5 -1 -2 1 2 -2 -1 -1 -1 -0 -0 0 0 0
-2 -11 11 1 -4 1 -2 0 -7 4 -3 7 0 -6 -5 1 2 4 5 8 -2 0 2 -2 -0 3 2 3 1 2 -2 0 -0 0 0 2 -1 -1 0 -0 -1 -1 -2 -0 1 -0 -0 1 -0
Height
3142 3142 3143 3143 3147 3140 3138 3140 3142 3142 3142 3140 3140 3141 3144 3147 3149 3152 3148 3149 3151 3152 3153 3155 3157 3159 3162 3165 3167 3168 3169 3169 3170 3170 3171 3172 3173 3173 3174 3174 3174 3174 3174 3174 3175 3176 3177 3177 3177
3139 3139 3141 3140 3139 3136 3136 3138 3138 3139 3141 3140 3140 3141 3144 3147 3148 3148 3149 3148 3150 3152 3153 3156 3158 3160 3163 3165 3167 3169 3170 3170 3171 3171 3172 3173 3174 3175 3175 3176 3176 3176 3176 3176 3177 3178 3178 3179 3179
3136 3136 3138 3137 3131 3131 3134 3136 3134 3134 3136 3138 3140 3141 3144 3147 3148 3148 3149 3149 3149 3151 3154 3157 3159 3162 3164 3166 3168 3169 3170 3171 3172 3173 3173 3174 3175 3176 3177 3177 3178 3178 3178 3178 3179 3180 3179 3180 3180
3132 3133 3134 3130 3127 3130 3134 3133 3131 3131 3133 3136 3138 3141 3144 3147 3148 3149 3150 3150 3150 3152 3154 3157 3160 3163 3165 3166 3167 3169 3171 3172 3173 3173 3174 3175 3176 3177 3177 3178 3179 3180 3180 3180 3180 3180 3181 3181 3180
3127 3128 3126 3124 3123 3127 3134 3133 3132 3131 3133 3134 3137 3140 3143 3145 3147 3148 3150 3150 3151 3152 3154 3157 3160 3163 3165 3166 3168 3170 3171 3172 3173 3174 3175 3177 3177 3178 3178 3180 3180 3181 3181 3182 3182 3181 3181 3181 3181
3121 3122 3119 3120 3121 3126 3131 3133 3132 3134 3135 3137 3139 3141 3143 3144 3145 3147 3148 3149 3151 3153 3155 3158 3160 3163 3164 3166 3169 3170 3172 3173 3173 3174 3176 3177 3178 3179 3180 3181 3182 3182 3182 3182 3183 3182 3181 3182 3182
3111 3114 3113 3118 3119 3121 3125 3130 3131 3133 3134 3136 3137 3139 3142 3142 3143 3145 3146 3148 3150 3152 3155 3158 3160 3162 3164 3166 3169 3170 3172 3173 3174 3175 3176 3177 3178 3179 3180 3181 3182 3183 3183 3184 3184 3183 3182 3182 3181
3105 3107 3107 3111 3114 3117 3122 3126 3128 3129 3130 3131 3133 3136 3138 3140 3140 3141 3144 3146 3148 3150 3154 3157 3159 3161 3164 3166 3169 3171 3172 3173 3174 3175 3177 3178 3179 3180 3181 3182 3183 3183 3184 3185 3184 3184 3183 3182 3181
3098 3097 3094 3103 3109 3115 3120 3121 3124 3125 3125 3125 3129 3133 3137 3139 3139 3139 3141 3142 3144 3147 3151 3155 3158 3161 3164 3167 3169 3170 3172 3174 3174 3175 3176 3178 3180 3181 3182 3183 3184 3184 3184 3184 3184 3183 3183 3182 3181
3086 3084 3087 3102 3109 3112 3117 3119 3120 3120 3120 3121 3125 3130 3133 3135 3138 3138 3139 3141 3143 3146 3148 3152 3157 3161 3165 3167 3169 3170 3172 3174 3175 3176 3176 3178 3179 3181 3182 3182 3183 3184 3184 3184 3184 3184 3182 3181 3180
3077 3074 3088 3098 3103 3109 3113 3116 3118 3117 3116 3119 3123 3126 3130 3132 3135 3138 3142 3144 3145 3147 3148 3152 3156 3162 3165 3167 3169 3171 3173 3174 3175 3176 3177 3178 3179 3180 3181 3182 3182 3183 3183 3183 3183 3182 3181 3180 3178
3070 3075 3083 3090 3097 3105 3107 3112 3114 3116 3116 3117 3120 3124 3127 3131 3135 3135 3140 3142 3143 3146 3149 3152 3156 3161 3165 3167 3168 3170 3172 3174 3175 3175 3176 3178 3179 3181 3180 3180 3181 3181 3181 3182 3181 3180 3179 3178 3177
3064 3071 3078 3086 3096 3100 3102 3106 3110 3111 3113 3114 3117 3122 3121 3128 3135 3136 3139 3142 3143 3146 3150 3152 3157 3161 3164 3166 3167 3169 3171 3172 3173 3175 3175 3176 3178 3179 3180 3180 3180 3180 3179 3179 3179 3178 3177 3176 3175
3060 3067 3075 3082 3089 3093 3095 3100 3105 3109 3110 3112 3115 3120 3122 3121 3128 3129 3133 3138 3141 3145 3149 3152 3155 3159 3162 3164 3166 3168 3169 3171 3172 3173 3173 3174 3175 3177 3178 3178 3179 3178 3178 3176 3176 3175 3176 3174 3173
3059 3064 3069 3072 3079 3083 3089 3093 3097 3104 3107 3109 3113 3117 3120 3123 3123 3124 3131 3137 3140 3145 3148 3150 3153 3157 3160 3162 3165 3166 3168 3170 3171 3172 3172 3173 3174 3174 3174 3175 3176 3176 3176 3175 3174 3174 3174 3173 3172
3053 3059 3059 3060 3070 3077 3084 3088 3094 3101 3103 3105 3108 3112 3116 3117 3121 3123 3130 3135 3138 3141 3145 3147 3151 3154 3158 3161 3163 3165 3166 3168 3170 3171 3171 3171 3172 3172 3173 3173 3174 3173 3173 3174 3173 3173 3173 3172 3172
3047 3044 3048 3055 3062 3072 3077 3082 3089 3096 3100 3101 3104 3107 3112 3116 3117 3120 3126 3131 3135 3139 3142 3145 3148 3152 3157 3159 3162 3164 3166 3167 3168 3169 3170 3170 3170 3171 3171 3171 3171 3171 3172 3171 3171 3171 3173 3173 3173
3036 3040 3044 3048 3056 3063 3070 3077 3083 3090 3094 3097 3099 3103 3107 3112 3114 3119 3123 3127 3132 3136 3139 3142 3146 3150 3154 3157 3159 3162 3164 3165 3167 3167 3168 3169 3170 3170 3170 3171 3170 3170 3171 3171 3171 3170 3171 3172 3173
3038 3041 3042 3046 3052 3059 3064 3072 3078 3084 3088 3091 3095 3100 3103 3108 3112 3116 3120 3125 3130 3134 3137 3141 3145 3150 3152 3154 3157 3159 3162 3164 3165 3166 3167 3169 3169 3169 3170 3170 3170 3168 3171 3170 3171 3171 3171 3172 3172
3033 3037 3039 3046 3049 3055 3061 3066 3074 3077 3083 3089 3094 3097 3100 3103 3107 3112 3117 3122 3127 3132 3135 3140 3144 3147 3149 3151 3154 3157 3160 3162 3163 3164 3165 3166 3167 3168 3169 3169 3170 3168 3170 3170 3169 3169 3173 3173 3172
3026 3031 3037 3043 3047 3052 3056 3062 3064 3070 3075 3078 3086 3091 3096 3100 3103 3109 3114 3120 3124 3130 3133 3139 3142 3144 3147 3149 3151 3155 3158 3159 3159 3160 3163 3164 3165 3166 3168 3167 3166 3167 3168 3168 3168 3169 3170 3171 3170
3020 3028 3035 3041 3043 3045 3051 3054 3056 3061 3068 3073 3079 3085 3091 3095 3101 3108 3113 3118 3122 3127 3132 3135 3138 3142 3145 3147 3150 3154 3155 3156 3156 3156 3159 3162 3163 3164 3165 3165 3165 3165 3164 3165 3166 3167 3168 3169 3169
3016 3025 3032 3039 3042 3044 3044 3049 3050 3055 3058 3066 3073 3080 3086 3091 3097 3103 3109 3114 3120 3125 3129 3133 3136 3139 3142 3145 3148 3151 3153 3153 3153 3154 3156 3159 3161 3162 3162 3162 3162 3163 3163 3162 3163 3164 3166 3167 3168
3019 3025 3031 3036 3041 3042 3038 3042 3043 3042 3051 3062 3071 3075 3079 3085 3091 3098 3105 3110 3117 3121 3125 3129 3132 3136 3139 3142 3145 3148 3150 3152 3152 3153 3154 3157 3159 3160 3160 3159 3160 3160 3160 3161 3162 3163 3165 3165 3166
3015 3018 3026 3034 3037 3029 3032 3040 3035 3042 3051 3060 3066 3069 3074 3080 3086 3092 3099 3105 3111 3115 3120 3125 3129 3133 3136 3140 3143 3146 3148 3150 3150 3152 3154 3156 3157 3158 3158 3158 3158 3158 3159 3160 3161 3162 3164 3164 3165
3007 3011 3011 3017 3024 3022 3028 3028 3032 3040 3049 3057 3061 3067 3072 3076 3083 3090 3095 3101 3106 3112 3117 3121 3126 3129 3133 3137 3141 3143 3145 3147 3148 3150 3152 3154 3155 3155 3156 3156 3156 3157 3158 3159 3160 3161 3162 3163 3164
3004 3006 3013 3014 3016 3021 3024 3027 3033 3039 3042 3048 3055 3060 3066 3073 3080 3085 3090 3097 3102 3107 3112 3117 3121 3126 3131 3134 3137 3140 3142 3144 3145 3148 3149 3151 3153 3153 3153 3153 3154 3155 3156 3157 3159 3160 3161 3162 3163
2999 3004 3011 3011 3016 3018 3018 3021 3023 3031 3037 3043 3049 3054 3062 3069 3074 3080 3086 3091 3097 3103 3108 3112 3117 3122 3127 3130 3134 3137 3139 3141 3143 3145 3146 3148 3150 3151 3151 3152 3153 3153 3155 3156 3157 3158 3160 3161 3162
2994 2999 3006 3011 3011 3011 3018 3017 3023 3029 3033 3039 3044 3050 3057 3063 3070 3076 3082 3087 3093 3097 3100 3106 3111 3117 3122 3126 3130 3133 3136 3137 3140 3142 3142 3145 3147 3148 3149 3149 3150 3152 3153 3154 3155 3157 3158 3159 3161
2989 2994 2999 3003 3008 3008 3008 3014 3019 3025 3031 3036 3041 3047 3054 3060 3066 3072 3077 3083 3088 3090 3094 3101 3106 3112 3118 3122 3125 3129 3132 3133 3136 3138 3139 3142 3143 3144 3146 3147 3148 3149 3151 3152 3153 3154 3156 3158 3159